Weather History for Monroe, MI

Change the Weather History Date:

Saturday, October 1, 2011

  Actual Average Record
Temperature  
Mean Temperature 48 °F -  
Max Temperature 55 °F 70 °F 88 °F (1937)
Min Temperature 42 °F 48 °F 31 °F (1947)
Degree Days  
Heating Degree Days 16    
Moisture  
Dew Point 41 °F    
Average Humidity 78    
Maximum Humidity 100    
Minimum Humidity 47    
Precipitation  
Precipitation 0.00 in - - ()
Sea Level Pressure  
Sea Level Pressure 30.04 in    
Wind  
Wind Speed 15 mph (NNW)    
Max Wind Speed 21 mph    
Max Gust Speed 32 mph    
Visibility 10 miles    
Events Rain    
Averages and records for this station are not official NWS values.
T = Trace of Precipitation, MM = Missing Value Source: NWS Daily Summary

Daily Weather History Graph

Daily Weather History Graph

Search for Another Location

Airport:

Trip Planner

Search our weather history database for the weather conditions in past years. The results will help you decide how hot, cold, wet, or windy it might be!

Date:

Astronomy

Oct. 01, 2011 Rise Set
Actual Time 7:30 AM EDT 7:15 PM EDT
Civil Twilight 7:02 AM EDT 7:43 PM EDT
Nautical Twilight 6:30 AM EDT 8:15 PM EDT
Astronomical Twilight 5:57 AM EDT 8:48 PM EDT
Moon 12:40 PM EDT (10/1) 10:06 PM EDT (10/1)
Length of Visible Light 12h 41m
Length of Day
11h 45m
Waxing Crescent, 24% of the Moon is Illuminated
Oct 1
Waxing Crescent
Oct 3
First Quarter
Oct 11
Full
Oct 19
Last Quarter
Oct 26
New

Hourly Weather History & Observations

Time (EDT) Temp. Windchill Dew Point Humidity Pressure Visibility Wind Dir Wind Speed Gust Speed Precip Events Conditions
12:13 AM 42.8 °F 35.4 °F 39.2 °F 87% 29.93 in 10.0 mi NNW 15.0 mph 24.2 mph N/A   Overcast
12:33 AM 42.8 °F 34.5 °F 41.0 °F 93% 29.93 in 10.0 mi NNW 18.4 mph 24.2 mph N/A   Drizzle
12:54 AM 42.8 °F 35.1 °F 41.0 °F 93% 29.92 in 10.0 mi NW 16.1 mph 20.7 mph N/A   Light Drizzle
1:14 AM 42.8 °F 34.8 °F 42.8 °F 100% 29.92 in 10.0 mi NNW 17.3 mph 21.9 mph N/A Rain Light Rain
1:34 AM 42.8 °F 34.8 °F 42.8 °F 100% 29.93 in 10.0 mi NNW 17.3 mph 24.2 mph N/A Rain Light Rain
1:49 AM 42.8 °F 35.4 °F 42.8 °F 100% 29.93 in 10.0 mi NW 15.0 mph 23.0 mph N/A Rain Light Rain
2:11 AM 42.8 °F 35.8 °F 42.8 °F 100% 29.93 in 10.0 mi NW 13.8 mph 23.0 mph N/A Rain Light Rain
2:31 AM 42.8 °F 35.1 °F 42.8 °F 100% 29.93 in 10.0 mi NW 16.1 mph 20.7 mph N/A Rain Light Rain
2:51 AM 42.8 °F 35.4 °F 42.8 °F 100% 29.93 in 10.0 mi NW 15.0 mph 21.9 mph N/A   Light Drizzle
3:11 AM 42.8 °F 35.4 °F 42.8 °F 100% 29.92 in 10.0 mi NW 15.0 mph 23.0 mph N/A   Overcast
3:32 AM 42.8 °F 35.4 °F 42.8 °F 100% 29.92 in 5.0 mi NW 15.0 mph 23.0 mph N/A   Overcast
3:52 AM 42.8 °F 36.2 °F 42.8 °F 100% 29.93 in 5.0 mi NW 12.7 mph 19.6 mph N/A   Drizzle
4:12 AM 42.8 °F 35.8 °F 42.8 °F 100% 29.93 in 7.0 mi NW 13.8 mph 20.7 mph N/A   Drizzle
4:32 AM 42.8 °F 36.2 °F 42.8 °F 100% 29.94 in 10.0 mi NNW 12.7 mph 21.9 mph N/A   Drizzle
4:52 AM 44.6 °F 38.4 °F 44.6 °F 100% 29.95 in 10.0 mi NNW 12.7 mph 17.3 mph N/A Rain Light Rain
5:12 AM 44.6 °F 37.8 °F 44.6 °F 100% 29.95 in 10.0 mi NNW 15.0 mph 21.9 mph N/A   Drizzle
5:32 AM 44.6 °F 38.4 °F 44.6 °F 100% 29.95 in 10.0 mi NNW 12.7 mph 21.9 mph N/A   Drizzle
5:52 AM 44.6 °F 39.2 °F 44.6 °F 100% 29.96 in 7.0 mi NNW 10.4 mph 19.6 mph N/A Rain Light Rain
6:12 AM 44.6 °F 38.8 °F 44.6 °F 100% 29.97 in 10.0 mi NNW 11.5 mph - N/A   Drizzle
6:32 AM 44.6 °F 39.7 °F 44.6 °F 100% 29.97 in 10.0 mi NNW 9.2 mph 18.4 mph N/A   Drizzle
6:53 AM 46.4 °F 41.1 °F 46.4 °F 100% 29.98 in 7.0 mi NNW 11.5 mph - N/A   Overcast
7:13 AM 46.4 °F 41.1 °F 46.4 °F 100% 29.99 in 7.0 mi North 11.5 mph 16.1 mph N/A   Overcast
7:33 AM 46.4 °F 40.1 °F 46.4 °F 100% 30.00 in 10.0 mi North 15.0 mph 19.6 mph N/A   Overcast
7:53 AM 46.4 °F 40.4 °F 46.4 °F 100% 30.01 in 10.0 mi North 13.8 mph 24.2 mph N/A   Overcast
8:13 AM 46.4 °F 39.8 °F 46.4 °F 100% 30.02 in 10.0 mi North 16.1 mph 28.8 mph N/A   Overcast
8:33 AM 46.4 °F 40.4 °F 46.4 °F 100% 30.03 in 10.0 mi North 13.8 mph 21.9 mph N/A   Overcast
8:53 AM 46.4 °F 40.7 °F 46.4 °F 100% 30.04 in 10.0 mi North 12.7 mph 26.5 mph N/A   Overcast
9:13 AM 48.2 °F - 44.6 °F 87% 30.05 in 10.0 mi North 18.4 mph 25.3 mph N/A   Overcast
9:33 AM 48.2 °F - 44.6 °F 87% 30.06 in 10.0 mi North 13.8 mph 25.3 mph N/A   Overcast
9:54 AM 48.2 °F - 44.6 °F 87% 30.07 in 10.0 mi North 16.1 mph 24.2 mph N/A   Overcast
10:14 AM 48.2 °F - 42.8 °F 82% 30.08 in 10.0 mi North 13.8 mph 24.2 mph N/A   Overcast
10:34 AM 48.2 °F - 42.8 °F 82% 30.08 in 10.0 mi North 17.3 mph 27.6 mph N/A   Overcast
10:54 AM 48.2 °F - 41.0 °F 76% 30.09 in 10.0 mi North 17.3 mph 26.5 mph N/A   Overcast
11:14 AM 48.2 °F - 39.2 °F 71% 30.09 in 10.0 mi North 13.8 mph 32.2 mph N/A   Overcast
11:34 AM 48.2 °F - 39.2 °F 71% 30.10 in 10.0 mi NNE 16.1 mph 26.5 mph N/A   Overcast
11:54 AM 50.0 °F - 39.2 °F 66% 30.10 in 10.0 mi North 20.7 mph 28.8 mph N/A   Overcast
12:14 PM 51.8 °F - 39.2 °F 62% 30.10 in 10.0 mi North 18.4 mph 24.2 mph N/A   Overcast
12:34 PM 51.8 °F - 39.2 °F 62% 30.11 in 10.0 mi North 17.3 mph 25.3 mph N/A   Overcast
12:54 PM 51.8 °F - 37.4 °F 58% 30.11 in 10.0 mi North 15.0 mph 26.5 mph N/A   Mostly Cloudy
1:15 PM 53.6 °F - 37.4 °F 54% 30.11 in 10.0 mi North 13.8 mph 24.2 mph N/A   Overcast
1:35 PM 53.6 °F - 37.4 °F 54% 30.11 in 10.0 mi North 13.8 mph 27.6 mph N/A   Overcast
1:55 PM 53.6 °F - 37.4 °F 54% 30.10 in 10.0 mi North 13.8 mph 24.2 mph N/A   Mostly Cloudy
2:15 PM 55.4 °F - 37.4 °F 51% 30.10 in 10.0 mi NNW 17.3 mph 25.3 mph N/A   Mostly Cloudy
2:35 PM 55.4 °F - 37.4 °F 51% 30.10 in 10.0 mi North 17.3 mph 28.8 mph N/A   Scattered Clouds
2:55 PM 55.4 °F - 35.6 °F 47% 30.10 in 10.0 mi North 16.1 mph 27.6 mph N/A   Mostly Cloudy
3:10 PM 55.4 °F - 35.6 °F 47% 30.11 in 10.0 mi North 12.7 mph 21.9 mph N/A   Scattered Clouds
3:30 PM 55.4 °F - 35.6 °F 47% 30.11 in 10.0 mi North 17.3 mph 27.6 mph N/A   Scattered Clouds
3:50 PM 55.4 °F - 35.6 °F 47% 30.11 in 10.0 mi North 11.5 mph 20.7 mph N/A   Scattered Clouds
4:11 PM 55.4 °F - 37.4 °F 51% 30.11 in 10.0 mi North 17.3 mph - N/A   Scattered Clouds
4:31 PM 55.4 °F - 35.6 °F 47% 30.11 in 10.0 mi North 19.6 mph 26.5 mph N/A   Scattered Clouds
4:51 PM 55.4 °F - 35.6 °F 47% 30.12 in 10.0 mi NNW 15.0 mph 21.9 mph N/A   Scattered Clouds
5:11 PM 55.4 °F - 35.6 °F 47% 30.12 in 10.0 mi NNW 15.0 mph 20.7 mph N/A   Mostly Cloudy
5:31 PM 53.6 °F - 35.6 °F 51% 30.13 in 10.0 mi North 13.8 mph 20.7 mph N/A   Mostly Cloudy
5:53 PM 53.6 °F - 35.6 °F 51% 30.13 in 10.0 mi North 15.0 mph 20.7 mph N/A   Mostly Cloudy
6:13 PM 51.8 °F - 35.6 °F 54% 30.14 in 10.0 mi North 13.8 mph - N/A   Mostly Cloudy
6:34 PM 51.8 °F - 35.6 °F 54% 30.14 in 10.0 mi North 12.7 mph 20.7 mph N/A   Mostly Cloudy
7:14 PM 48.2 °F - 35.6 °F 62% 30.15 in 10.0 mi North 10.4 mph - N/A   Scattered Clouds
7:54 PM 46.4 °F 42.9 °F 35.6 °F 66% 30.16 in 10.0 mi North 6.9 mph - N/A   Clear
8:14 PM 44.6 °F 41.4 °F 37.4 °F 76% 30.16 in 10.0 mi NNW 5.8 mph - N/A   Clear
8:34 PM 44.6 °F 41.4 °F 37.4 °F 76% 30.17 in 10.0 mi NNW 5.8 mph - N/A   Clear
8:54 PM 42.8 °F - 37.4 °F 81% 30.17 in 10.0 mi Calm Calm - N/A   Clear
9:14 PM 42.8 °F 41.1 °F 37.4 °F 81% 30.17 in 10.0 mi North 3.5 mph - N/A   Clear
9:35 PM 42.8 °F 38.0 °F 37.4 °F 81% 30.17 in 10.0 mi NNW 8.1 mph - N/A   Clear
9:55 PM 42.8 °F 39.3 °F 37.4 °F 81% 30.16 in 10.0 mi NNW 5.8 mph - N/A   Clear
10:15 PM 42.8 °F 39.3 °F 37.4 °F 81% 30.16 in 10.0 mi NW 5.8 mph - N/A   Clear
10:35 PM 42.8 °F 39.3 °F 37.4 °F 81% 30.16 in 10.0 mi NW 5.8 mph - N/A   Clear
10:55 PM 42.8 °F 39.3 °F 37.4 °F 81% 30.16 in 10.0 mi NW 5.8 mph - N/A   Clear
11:15 PM 42.8 °F 39.3 °F 37.4 °F 81% 30.16 in 10.0 mi NW 5.8 mph - N/A   Clear
11:35 PM 41.0 °F - 39.2 °F 93% 30.16 in 10.0 mi Calm Calm - N/A   Clear
11:55 PM 41.0 °F 39.0 °F 39.2 °F 93% 30.16 in 10.0 mi NNW 3.5 mph - N/A   Clear